[[{"header":{"parameterUnit":"m.s-1","parameterCategory":1,"la1":30.2991,"la2":30.254,"lo1":-89.0895,"lo2":-89.0444,"dy":0.0017,"dx":0.0017,"nx":28,"ny":28,"refTime":"2023-10-05T03:00:00:Z","depth":0,"parameterNumber":2,"parameterNumberName":"U-component_of_WINDS"},"data":[0,0,0,0,0,0,0,0,0,0,0,0,0,0,0,0,0,0,0,0,0,0,0,0,0,0,0,0,0,0,0,0,0,0,0,0,0,0,0,0,0,0,0,0,0,0,0,0,0,0,0,0,0,0,0,0,0,0,1.8707,1.8703,0,1.8336,1.8332,1.8327,1.8053,1.8051,1.8048,1.8046,1.7656,1.7648,1.764,0,0,0,0,0,0,0,0,0,0,0,0,0,1.9171,1.9164,1.8707,1.8703,1.8698,1.8336,1.8331,1.8326,1.8054,1.8051,1.8048,1.8045,1.7658,1.7649,1.7639,0,0,0,0,0,0,0,0,0,0,0,0,0,1.8902,1.9161,1.8708,1.8519,1.8498,1.8337,1.8331,1.8325,1.8054,1.8051,1.8047,1.8044,1.7662,1.765,1.7638,1.7632,0,0,1.76,1.7595,0,0,0,0,0,0,0,0,1.8917,1.8885,1.8551,1.8531,1.8508,1.8237,1.8351,1.8092,1.8055,1.8222,1.8046,1.8042,1.7851,1.7823,1.7761,1.7614,1.7597,1.7599,1.7591,1.7586,1.7583,0,0,0,0,0,0,0,1.8936,1.8899,1.856,1.8547,1.852,1.8449,1.8407,1.8301,1.8061,1.8207,1.8187,1.8147,1.7839,1.7774,1.775,1.7592,1.7599,1.7588,1.7581,1.7576,1.742,1.7423,0,0,0,0,0,0,1.8986,1.8916,1.8571,1.8549,1.8708,1.8444,1.8396,1.8328,1.8061,1.8018,1.8151,1.8136,1.7796,1.7765,1.7735,1.7709,1.7586,1.7575,1.7568,1.7417,1.7421,1.7424,0,0,0,0,0,0,1.8997,1.8958,1.8586,1.8727,1.8674,1.844,1.8364,1.8322,1.8256,1.8018,1.7973,1.8129,1.7792,1.7752,1.766,1.7692,1.7569,1.7558,1.7413,1.7418,1.7423,1.7661,0,0,0,0,0,0,1.9011,1.8963,1.8961,1.8729,1.8668,1.8522,1.8366,1.8317,1.8237,1.8214,1.7986,1.7944,1.7786,1.768,1.7648,1.7673,1.7548,1.7409,1.7415,1.7421,1.7649,1.7673,1.7694,0,0,0,0,0,1.9029,1.904,1.8962,1.8922,1.8661,1.8524,1.8488,1.8309,1.8241,1.8235,1.8082,1.7952,1.7696,1.7673,1.7635,1.7657,1.7406,1.7414,1.7421,1.7639,1.7669,1.7694,0,0,0,0,0,0,1.9277,1.9006,1.8916,1.8854,1.8715,1.8478,1.8464,1.8347,1.822,1.8204,1.7984,1.7935,1.7866,1.7751,1.7732,1.7637,1.7534,1.7534,1.7713,1.7739,1.7762,1.7788,1.7538,0,0,0,0,0,1.9326,1.9241,1.9008,1.8975,1.891,1.8701,1.8635,1.851,1.8354,1.8293,1.8133,1.7985,1.787,1.7799,1.768,1.7633,1.7577,1.7629,1.7652,1.7671,1.7672,1.7637,1.7656,1.7448,1.7448,1.7448,0,0,1.9423,1.9265,1.9224,1.9021,1.8898,1.8812,1.8652,1.8568,1.85,1.8278,1.8182,1.8061,1.788,1.7811,1.7772,1.7713,1.7718,1.7681,1.7698,1.7688,1.7646,1.7666,1.7684,1.7453,1.7452,1.7452,0,0,1.9556,1.943,1.9388,1.927,1.9087,1.8948,1.894,1.8721,1.8633,1.8534,1.8365,1.8281,1.8089,1.7967,1.7881,1.7972,1.7846,1.794,1.8056,1.8024,1.804,1.8053,1.8083,1.8096,1.7943,1.7943,1.7944,0,1.9699,1.9565,1.9381,1.9307,1.9222,1.9022,1.8977,1.8869,1.8657,1.8601,1.8541,1.8296,1.8161,1.8059,1.8082,1.802,1.7999,1.7962,1.8053,1.8065,1.8074,1.81,1.8112,1.7956,1.7954,1.7953,1.7952,0,1.9749,1.9659,1.9647,1.9451,1.9365,1.9306,1.911,1.9044,1.8928,1.8795,1.8696,1.8528,1.8372,1.8339,1.8223,1.8221,1.819,1.8096,1.7986,1.811,1.813,1.8138,1.7973,1.7969,1.7965,1.7962,0,0,2.0022,1.9729,1.9727,1.9636,1.9422,1.9347,1.9279,1.913,1.9077,1.8939,1.8873,1.8718,1.8629,1.853,1.8399,1.8372,1.8452,1.8278,1.8271,1.8314,1.8436,1.8507,1.8521,1.837,1.8371,1.8372,1.845,0,2.0119,1.9989,1.9822,1.9747,1.966,1.9471,1.9411,1.9272,1.9147,1.9053,1.8913,1.8805,1.8698,1.8637,1.8602,1.8451,1.8473,1.8443,1.8302,1.83,1.835,1.8532,1.8605,1.8687,1.8457,1.8458,1.8459,0,2.0213,2.0089,2.0007,1.9801,1.9758,1.9708,1.9558,1.9472,1.931,1.9221,1.9115,1.8975,1.8889,1.8797,1.8675,1.8659,1.8592,1.8509,1.8508,1.8484,1.8384,1.851,1.8709,1.8721,1.847,1.8469,1.8469,0,2.0418,2.023,2.0156,2.0084,1.9843,1.9812,1.9709,1.9544,1.9466,1.9335,1.9281,1.9141,1.9063,1.8957,1.8782,1.8731,1.8678,1.8571,1.8598,1.8603,1.8591,1.8593,1.8779,1.8557,1.8556,1.8556,1.8556,0,2.0541,2.0497,2.0245,2.0199,2.0144,1.9953,1.9902,1.9782,1.9637,1.9562,1.939,1.9323,1.9098,1.9003,1.8866,1.8785,1.8752,1.8674,1.8637,1.8687,1.8697,1.8637,1.8625,1.8559,1.8558,1.8558,1.8557,0,2.0758,2.0588,2.0494,2.0276,2.022,2.0189,2.0,1.9947,1.9814,1.9721,1.9688,1.9478,1.9358,1.9175,1.8999,1.8906,1.8846,1.8789,1.8902,1.8879,1.8915,1.8913,1.9065,1.9074,1.8852,1.8855,1.8857,0,2.0845,2.0808,2.0588,2.0527,2.0432,2.0337,2.0257,2.0068,1.9992,1.9806,1.9775,1.9643,1.9526,1.9343,1.9171,1.9036,1.8971,1.9034,1.8948,1.9,1.8967,1.897,1.8964,1.9052,1.9056,1.9058,1.9061,0,2.1018,2.0937,2.0831,2.0697,2.0608,2.0491,2.0366,2.0326,2.0108,2.0031,1.9909,1.9819,1.9642,1.9511,1.9353,1.9242,1.9114,1.909,1.9088,1.9136,1.9202,1.9164,1.8953,1.9086,1.9083,1.9081,1.908,1.9079,2.1169,2.1127,2.0967,2.0854,2.0742,2.063,2.0569,2.0431,2.0327,2.017,2.0065,1.9948,1.9786,1.9561,1.9458,1.9361,1.9306,1.9305,1.9303,1.9305,1.9322,1.9223,1.9332,1.9331,1.933,1.933,1.9329,0,2.133,2.1219,2.1118,2.0951,2.0863,2.0757,2.0613,2.0544,2.0445,2.0308,2.0198,2.0057,1.993,1.9752,1.9611,1.9568,1.9506,1.9537,1.9535,1.9512,1.9381,1.9395,1.959,1.959,1.959,1.959,1.959,1.959,2.1403,2.1326,2.1227,2.1091,2.0978,2.0865,2.0793,2.0687,2.0576,2.0428,2.0324,2.021,2.0054,1.9902,1.978,1.973,1.9684,1.9733,1.9666,1.9545,1.9521,1.9498,1.951,1.9726,1.9726,1.9803,1.9804,1.9805]},{"header":{"parameterUnit":"m.s-1","parameterCategory":1,"la1":30.2991,"la2":30.254,"lo1":-89.0895,"lo2":-89.0444,"dy":0.0017,"dx":0.0017,"nx":28,"ny":28,"refTime":"2023-10-05T03:00:00:Z","depth":0,"parameterNumber":3,"parameterNumberName":"V-component_of_WINDS"},"data":[0,0,0,0,0,0,0,0,0,0,0,0,0,0,0,0,0,0,0,0,0,0,0,0,0,0,0,0,0,0,0,0,0,0,0,0,0,0,0,0,0,0,0,0,0,0,0,0,0,0,0,0,0,0,0,0,0,0,3.202,3.2023,0,3.2308,3.2312,3.2315,3.2427,3.2427,3.2426,3.2425,3.27,3.2708,3.2716,0,0,0,0,0,0,0,0,0,0,0,0,0,3.1549,3.1557,3.202,3.2024,3.2027,3.2308,3.2312,3.2316,3.2428,3.2427,3.2426,3.2425,3.2698,3.2707,3.2717,0,0,0,0,0,0,0,0,0,0,0,0,0,3.1786,3.156,3.2019,3.2117,3.2129,3.2307,3.2312,3.2317,3.2428,3.2427,3.2426,3.2425,3.2695,3.2706,3.2718,3.2813,0,0,3.2755,3.276,0,0,0,0,0,0,0,0,3.1773,3.1803,3.2099,3.2111,3.2125,3.2331,3.2247,3.2482,3.2428,3.2314,3.2425,3.2424,3.2577,3.2599,3.2654,3.2826,3.2838,3.2756,3.2763,3.2768,3.2771,0,0,0,0,0,0,0,3.1756,3.1791,3.2133,3.2103,3.2119,3.2141,3.2174,3.2292,3.2447,3.2324,3.2333,3.2366,3.2583,3.2643,3.2662,3.2842,3.2755,3.2766,3.2773,3.2778,3.3107,3.3108,0,0,0,0,0,0,3.1726,3.1777,3.2124,3.2142,3.1943,3.2151,3.2187,3.2266,3.2446,3.2473,3.2367,3.237,3.2623,3.2647,3.2672,3.2796,3.2768,3.2779,3.2786,3.3105,3.3107,3.3109,0,0,0,0,0,0,3.1715,3.1756,3.2113,3.1962,3.201,3.216,3.2247,3.2272,3.2331,3.248,3.2506,3.24,3.2623,3.2655,3.2779,3.2807,3.2785,3.2795,3.3103,3.3106,3.3108,3.3045,0,0,0,0,0,0,3.1701,3.1752,3.1793,3.1963,3.2017,3.222,3.2249,3.2278,3.2354,3.2361,3.2517,3.2542,3.2624,3.276,3.2791,3.2823,3.2805,3.3101,3.3104,3.3107,3.3045,3.3045,3.3045,0,0,0,0,0,3.1684,3.176,3.1795,3.1836,3.2074,3.2222,3.2252,3.2352,3.2356,3.2397,3.2492,3.2537,3.28,3.2772,3.2807,3.2844,3.31,3.3104,3.3107,3.3045,3.3045,3.3045,0,0,0,0,0,0,3.1582,3.1783,3.1825,3.1959,3.2073,3.2241,3.2295,3.2348,3.2458,3.2459,3.2572,3.2606,3.272,3.2794,3.276,3.2946,3.2953,3.2963,3.2894,3.2895,3.2894,3.2873,3.2815,0,0,0,0,0,3.1576,3.1686,3.1853,3.1955,3.2011,3.2143,3.2211,3.2279,3.2399,3.2445,3.255,3.2659,3.2767,3.2835,3.2942,3.3057,3.3091,3.3099,3.3098,3.3098,3.3105,3.3171,3.3176,3.312,3.312,3.312,0,0,3.1563,3.1687,3.1747,3.1938,3.2034,3.214,3.2183,3.2292,3.237,3.246,3.2586,3.2666,3.2795,3.2916,3.2974,3.2981,3.3128,3.3102,3.31,3.3108,3.3175,3.318,3.3185,3.3122,3.3122,3.3122,0,0,3.1593,3.1699,3.1797,3.1894,3.2043,3.2131,3.2154,3.2315,3.2374,3.2503,3.2573,3.2664,3.2847,3.2937,3.3006,3.3074,3.3118,3.3104,3.3102,3.3165,3.317,3.3174,3.3197,3.3205,3.3111,3.3111,3.3111,0,3.1556,3.1726,3.1837,3.1946,3.2026,3.212,3.2216,3.2303,3.2475,3.2526,3.2533,3.2767,3.286,3.3003,3.302,3.3073,3.31,3.3087,3.3161,3.3167,3.3173,3.3196,3.3204,3.3109,3.3109,3.3109,3.3109,0,3.1672,3.1788,3.1847,3.2021,3.2107,3.2208,3.233,3.2403,3.2463,3.2548,3.2677,3.2794,3.2927,3.2965,3.3021,3.3116,3.3116,3.3141,3.315,3.3174,3.3197,3.3207,3.3105,3.3106,3.3107,3.3107,0,0,3.1644,3.1882,3.1902,3.1982,3.2154,3.2242,3.2346,3.2483,3.2543,3.2658,3.2746,3.29,3.2925,3.3004,3.3071,3.3126,3.3172,3.3144,3.3149,3.3145,3.3282,3.3262,3.3271,3.3203,3.3205,3.3207,3.3271,0,3.1698,3.1897,3.2001,3.2152,3.2259,3.235,3.244,3.2551,3.2634,3.2731,3.2819,3.2928,3.2953,3.3001,3.306,3.3154,3.32,3.315,3.3281,3.3284,3.3246,3.3284,3.3263,3.3318,3.3281,3.3282,3.3284,0,3.1787,3.191,3.2074,3.2236,3.2284,3.2364,3.2498,3.2593,3.2719,3.2775,3.2865,3.2932,3.304,3.3042,3.3189,3.3153,3.3212,3.3266,3.327,3.3285,3.3285,3.3298,3.3338,3.3345,3.3299,3.3298,3.3297,0,3.1751,3.1956,3.2082,3.2147,3.2338,3.2392,3.2473,3.26,3.2676,3.2791,3.2841,3.2964,3.3031,3.3122,3.3218,3.3211,3.3356,3.3366,3.3402,3.3399,3.3427,3.3424,3.3475,3.3466,3.3465,3.3465,3.3465,0,3.18,3.1896,3.2069,3.2145,3.2255,3.2372,3.2474,3.2561,3.2674,3.2765,3.2848,3.293,3.3054,3.315,3.3225,3.3335,3.3364,3.3409,3.3428,3.3402,3.3396,3.3441,3.3439,3.3468,3.3467,3.3467,3.3466,0,3.1777,3.1898,3.204,3.2212,3.2257,3.233,3.2474,3.2549,3.2637,3.2751,3.2784,3.2919,3.3037,3.3144,3.3297,3.3348,3.3459,3.3483,3.3419,3.3429,3.3459,3.3454,3.354,3.3557,3.3536,3.3536,3.3536,0,3.1801,3.1878,3.206,3.2132,3.2213,3.2325,3.2405,3.2522,3.26,3.2753,3.2808,3.2934,3.304,3.3223,3.333,3.3448,3.3475,3.3497,3.3493,3.3464,3.3475,3.3469,3.3477,3.3495,3.3495,3.3495,3.3495,0,3.1829,3.1886,3.2002,3.214,3.2235,3.2346,3.246,3.2511,3.2647,3.2731,3.2857,3.294,3.3101,3.3222,3.3353,3.3429,3.3483,3.3496,3.351,3.3484,3.3444,3.3466,3.3415,3.3493,3.3493,3.3493,3.3493,3.3493,3.1831,3.1905,3.2046,3.2172,3.2271,3.2376,3.2456,3.2557,3.2666,3.2811,3.2871,3.2998,3.3121,3.3304,3.338,3.3477,3.3487,3.3508,3.3513,3.3516,3.3512,3.3429,3.3501,3.3501,3.3501,3.3501,3.3501,0,3.1864,3.196,3.2076,3.2236,3.2334,3.2385,3.2513,3.259,3.2703,3.2817,3.2923,3.3065,3.3185,3.3304,3.3428,3.3482,3.351,3.3511,3.3507,3.3524,3.3495,3.3471,3.3487,3.3487,3.3486,3.3486,3.3486,3.3486,3.1893,3.2021,3.2094,3.227,3.2364,3.2495,3.2564,3.2659,3.2752,3.2911,3.3013,3.3092,3.3207,3.3341,3.3451,3.3483,3.3523,3.3517,3.3555,3.3526,3.3526,3.3526,3.3503,3.3526,3.3526,3.3576,3.3576,3.3576]}]]